TimePDT,TemperatureF,Dew PointF,Humidity,Sea Level PressureIn,VisibilityMPH,Wind Direction,Wind SpeedMPH,Gust SpeedMPH,PrecipitationIn,Events,Conditions,WindDirDegrees,DateUTC
12:53 AM,60.1,48.0,64,29.96,10.0,SSW,9.2,-,N/A,,Clear,210,2012-10-08 07:53:00
1:53 AM,59.0,48.0,67,29.96,10.0,SSW,6.9,-,N/A,,Clear,200,2012-10-08 08:53:00
2:53 AM,60.1,46.9,62,29.96,10.0,SW,10.4,-,N/A,,Clear,220,2012-10-08 09:53:00
3:53 AM,55.9,46.0,69,29.96,10.0,Calm,Calm,-,N/A,,Clear,0,2012-10-08 10:53:00
4:53 AM,48.9,43.0,80,29.96,10.0,Calm,Calm,-,N/A,,Clear,0,2012-10-08 11:53:00
5:53 AM,48.9,44.1,83,29.96,10.0,Calm,Calm,-,N/A,,Clear,0,2012-10-08 12:53:00
6:53 AM,48.0,43.0,83,29.97,10.0,Calm,Calm,-,N/A,,Clear,0,2012-10-08 13:53:00
7:53 AM,52.0,45.0,77,29.99,10.0,Calm,Calm,-,N/A,,Clear,0,2012-10-08 14:53:00
8:53 AM,60.1,46.0,60,30.00,10.0,Calm,Calm,-,N/A,,Clear,0,2012-10-08 15:53:00
9:53 AM,68.0,46.0,45,30.01,10.0,SW,9.2,-,N/A,,Clear,230,2012-10-08 16:53:00
10:53 AM,70.0,46.0,42,30.01,10.0,SW,6.9,-,N/A,,Clear,230,2012-10-08 17:53:00
11:53 AM,73.0,45.0,37,30.00,10.0,WSW,9.2,-,N/A,,Clear,240,2012-10-08 18:53:00
12:53 PM,73.9,46.0,37,30.00,10.0,SW,15.0,-,N/A,,Clear,230,2012-10-08 19:53:00
1:53 PM,75.0,45.0,34,29.98,10.0,WSW,13.8,18.4,N/A,,Clear,240,2012-10-08 20:53:00
2:53 PM,75.0,46.0,36,29.97,10.0,West,10.4,17.3,N/A,,Clear,260,2012-10-08 21:53:00
3:53 PM,75.0,46.0,36,29.96,10.0,WSW,10.4,19.6,N/A,,Clear,240,2012-10-08 22:53:00
4:53 PM,72.0,48.9,44,29.96,10.0,SW,15.0,20.7,N/A,,Clear,230,2012-10-08 23:53:00
5:53 PM,70.0,48.0,46,29.96,10.0,SW,12.7,-,N/A,,Clear,220,2012-10-09 00:53:00
6:53 PM,66.0,48.9,54,29.96,10.0,WSW,10.4,-,N/A,,Clear,240,2012-10-09 01:53:00
7:53 PM,64.0,48.0,56,29.97,10.0,SW,8.1,-,N/A,,Clear,230,2012-10-09 02:53:00
8:53 PM,63.0,46.0,54,29.98,10.0,Variable,3.5,-,N/A,,Clear,0,2012-10-09 03:53:00
9:53 PM,62.1,45.0,53,29.99,10.0,SSW,6.9,-,N/A,,Clear,200,2012-10-09 04:53:00
10:53 PM,59.0,46.9,64,30.00,10.0,SSW,3.5,-,N/A,,Clear,200,2012-10-09 05:53:00
11:53 PM,53.1,45.0,74,30.00,10.0,Calm,Calm,-,N/A,,Clear,0,2012-10-09 06:53:00